GFSMW_prec_cloud_147.txt.gz
Cloud_Cover
8 5 5 63 28 5 5 17 5 0 0 2 0 0 0 0 0 0 0 0 0 0 0 5 5 5 5 5 5 0 0 0 0 0 0 0 3 90 100 100 100 51 100
100 100 100 85 4 91 5 1 3 5 5 5 0 4 5 1 0 0 0 0 0 1 5 5 5 5 27 81 95 100 48 0 7 98 18 6 0 0 96 100 100 100 67
100 100 100 85 100 100 97 32 17 5 5 0 5 8 0 0 1 4 5 5 5 5 5 5 48 89 100 100 100 100 100 100 26 39 100 32 18 16 1 71 100 100 100
98 27 76 70 100 100 16 5 5 5 3 0 0 1 5 5 5 5 5 5 5 5 5 77 80 100 100 100 100 100 100 100 100 80 35 100 100 100 44 0 8 98 100
8 1 4 20 68 6 57 38 5 0 0 1 5 1 5 5 5 5 5 5 5 5 43 44 82 96 100 100 100 100 100 100 100 100 95 94 100 100 100 10 0 5 87
0 2 60 97 27 86 70 5 5 5 5 4 0 2 5 5 6 5 21 22 48 16 22 90 62 97 96 100 100 100 100 100 100 100 100 100 100 100 100 99 59 71 0
13 66 91 11 26 36 5 5 5 3 1 0 1 5 5 32 98 80 70 71 93 70 74 76 64 87 79 100 100 100 100 100 100 100 100 100 100 100 100 100 100 100 63
42 95 23 96 5 1 5 2 0 5 0 0 4 5 5 99 85 59 90 92 97 100 79 100 82 79 100 100 100 100 100 100 100 100 100 100 100 100 100 100 100 100 100
5 5 86 66 5 0 28 50 28 5 0 4 5 5 5 23 58 43 90 65 93 99 100 100 97 100 100 100 100 100 100 100 100 100 100 100 100 100 100 100 100 100 100
2 9 100 100 55 98 100 65 5 5 2 0 5 5 5 5 5 37 83 59 99 100 100 100 90 100 100 87 97 97 100 100 100 100 100 100 100 100 100 100 100 95 79
5 51 100 100 93 74 8 5 5 5 4 5 5 5 5 7 5 9 100 100 100 100 100 100 100 100 100 96 97 100 100 100 100 100 100 100 100 100 100 100 100 100 100
10 70 53 67 55 7 5 5 5 5 5 5 5 5 5 63 94 94 92 100 100 100 100 100 100 100 100 100 100 100 100 100 100 100 100 100 100 100 100 100 100 100 100
100 100 100 100 24 5 6 5 5 5 5 5 5 5 36 98 94 100 100 99 100 100 100 100 100 100 100 100 100 100 100 100 100 100 100 100 100 100 100 100 100 100 100
100 100 100 100 11 6 5 40 9 5 5 5 5 30 61 94 100 100 100 100 100 100 100 100 100 100 100 100 100 100 100 100 100 99 100 100 100 100 100 100 100 100 100
100 100 97 26 33 18 5 5 5 18 6 5 18 64 98 100 100 100 100 100 100 100 100 100 100 100 100 100 100 100 100 100 100 100 100 100 100 100 100 100 100 100 100
100 99 67 100 91 5 5 5 5 5 19 41 40 73 70 74 100 100 100 100 99 100 100 100 100 100 100 100 100 100 100 100 100 100 100 100 100 100 100 100 100 100 100
5 30 35 45 5 3 3 5 5 9 5 22 21 16 6 99 100 100 100 100 100 100 100 100 100 100 100 100 100 100 100 100 100 100 100 100 96 100 100 100 100 100 100
5 5 5 5 1 0 0 5 24 22 5 100 100 82 83 99 100 100 100 100 100 100 100 100 100 100 100 100 100 100 100 100 100 100 98 64 73 93 69 66 89 76 99
5 5 5 0 0 4 27 96 99 6 50 91 100 100 100 100 100 100 100 100 100 100 100 100 100 100 100 100 100 100 100 100 100 100 100 100 100 100 100 100 100 97 72
18 4 5 0 5 11 100 100 75 21 97 100 98 98 100 100 100 100 100 100 100 100 100 100 100 100 100 100 100 100 100 100 100 100 100 100 100 100 100 100 100 100 100
5 5 3 7 37 55 100 100 100 56 91 100 96 100 100 100 100 100 100 100 100 100 100 100 100 100 100 100 100 100 100 100 100 100 100 100 100 100 100 100 100 100 100
5 5 5 58 100 99 100 100 100 92 72 96 100 100 99 100 100 100 100 100 100 100 100 100 100 100 100 100 100 100 100 100 100 100 100 100 100 100 100 100 100 100 100
5 5 69 100 100 100 100 100 100 100 93 95 99 100 100 100 99 99 100 100 100 100 100 100 100 100 100 100 100 100 100 100 100 100 99 100 16 5 12 58 5 6 13
8 67 100 100 100 100 100 100 100 100 100 96 100 99 100 100 99 100 100 100 99 100 100 100 100 100 100 100 100 100 100 100 100 100 100 92 6 5 5 5 5 21 63
87 97 100 100 100 100 75 86 99 100 100 100 98 100 100 100 100 97 100 100 100 100 100 100 100 100 100 100 100 100 100 100 100 94 5 5 8 5 5 5 5 14 17
99 99 95 100 100 91 100 72 85 100 100 100 100 100 100 100 100 100 100 100 100 100 100 100 100 100 100 100 100 100 100 100 81 7 5 9 60 55 12 75 28 99 46

GFSMW_prec_cloud_153.txt.gz
Cloud_Cover
8 4 4 5 19 5 5 4 0 3 8 5 4 5 5 1 0 0 5 5 5 5 5 5 5 5 6 21 6 17 61 22 12 88 50 1 0 0 0 0 0 0 1
77 23 10 6 5 33 5 32 100 100 86 4 0 0 0 0 5 5 5 5 5 5 5 6 34 5 38 21 59 64 89 100 100 100 100 30 2 2 0 0 0 0 8
100 100 85 5 5 22 53 100 100 100 100 11 5 5 4 5 5 5 5 5 5 5 5 8 41 7 40 100 100 70 100 100 100 100 100 100 92 70 3 25 0 2 31
100 39 5 5 5 23 27 28 80 78 28 8 37 13 5 5 5 5 5 5 5 5 5 7 20 46 61 71 100 97 100 100 100 100 100 100 100 100 73 100 100 75 98
100 99 5 21 5 42 70 53 5 5 5 5 9 5 5 5 5 5 5 5 5 5 5 11 85 100 85 99 100 100 89 100 100 100 100 100 100 100 100 93 100 100 100
89 61 5 5 5 20 18 36 5 5 5 5 5 5 5 5 5 5 9 65 75 59 64 100 100 100 95 91 100 100 100 100 100 100 100 100 100 100 100 100 78 100 100
8 62 84 58 75 12 6 5 26 5 5 5 5 5 5 5 5 11 20 100 90 57 93 99 100 100 88 76 98 100 100 98 100 100 100 100 100 100 100 100 100 100 100
100 100 98 90 90 23 10 99 16 5 5 5 6 5 5 5 8 9 6 21 92 8 6 24 31 61 98 65 41 94 77 98 84 100 100 100 100 100 100 100 100 100 92
100 98 84 100 99 89 70 13 5 5 5 5 5 5 5 5 13 68 98 8 5 8 5 9 34 100 78 66 100 94 94 79 88 100 95 100 100 100 100 100 100 100 100
75 94 100 100 96 76 99 68 5 5 5 5 5 10 13 75 100 85 6 5 5 5 5 37 100 100 98 94 81 85 97 91 92 89 96 96 100 100 100 100 100 100 100
100 99 100 100 100 75 13 18 16 14 30 86 100 99 91 100 100 17 5 9 8 5 5 47 100 100 100 80 64 68 88 85 96 96 100 100 98 100 100 100 100 100 100
34 71 100 100 100 93 46 84 100 100 100 100 99 72 100 88 6 5 5 5 5 5 5 100 89 100 100 100 66 69 99 100 100 100 99 100 100 100 100 100 100 100 100
60 84 100 100 100 100 100 100 100 100 99 100 90 94 50 5 16 14 5 5 5 5 5 99 100 100 100 100 100 100 81 100 100 100 100 100 100 100 100 100 100 100 100
100 93 100 100 100 100 100 100 100 82 100 84 88 34 64 61 70 7 5 5 5 5 93 79 100 100 100 100 100 100 98 100 100 99 100 100 100 100 100 100 100 100 100
88 100 100 100 100 100 100 100 100 93 58 37 33 80 73 18 6 5 35 5 5 12 100 96 99 100 100 100 100 100 100 100 100 100 100 100 100 100 100 100 100 100 100
100 100 100 100 100 100 100 58 95 76 10 54 75 73 17 26 5 52 100 87 15 7 100 100 98 100 100 100 100 100 100 100 100 100 100 100 100 100 100 100 100 100 100
100 100 100 100 100 100 100 86 47 36 5 39 90 69 62 61 52 92 100 100 66 87 100 100 100 100 100 100 100 100 100 100 100 100 100 100 100 100 100 100 100 100 100
100 100 100 100 99 80 56 56 34 10 13 5 20 77 58 55 100 100 100 91 81 100 100 100 100 100 100 100 100 100 100 100 100 100 100 100 100 100 100 100 100 100 100
100 99 77 73 75 71 96 80 43 5 5 5 5 5 84 100 99 100 100 74 61 90 100 100 100 100 100 100 100 100 100 100 100 100 100 100 100 100 100 100 100 100 100
96 98 100 100 100 97 60 16 5 5 5 5 5 74 100 100 100 100 100 62 30 68 100 100 100 100 100 100 100 100 100 100 96 100 100 100 100 100 100 100 100 100 100
100 97 89 47 44 5 5 5 5 5 5 5 67 100 100 100 100 100 100 68 88 100 100 100 100 100 100 100 100 100 100 100 100 100 100 100 100 100 100 100 100 100 100
100 72 27 9 5 5 5 5 5 5 5 39 100 100 100 100 100 100 100 100 96 100 100 100 100 100 100 100 100 100 100 100 100 100 100 100 100 100 100 82 84 93 100
8 44 6 5 41 5 5 5 11 29 77 67 100 100 100 100 100 100 100 100 98 100 100 100 100 100 100 98 100 100 100 99 100 100 100 100 100 100 100 100 85 38 5
11 5 5 5 70 14 8 78 92 79 98 99 96 98 97 94 100 100 100 100 100 100 100 100 100 100 100 92 86 86 90 91 100 100 100 100 66 47 44 25 57 89 63
5 5 5 84 47 5 5 32 60 96 75 62 27 75 25 54 90 100 100 100 100 100 100 100 100 100 100 100 92 75 85 95 100 89 100 100 58 44 85 98 98 97 100
33 5 54 30 5 21 80 69 63 78 28 9 85 87 71 84 86 93 90 98 100 100 100 100 100 100 100 100 100 100 100 78 78 100 99 88 65 89 82 90 77 95 100

GFSMW_prec_cloud_159.txt.gz
Cloud_Cover
100 100 100 100 100 100 100 100 94 67 20 13 5 5 5 5 5 5 5 5 5 5 5 5 29 50 18 47 57 88 91 35 68 53 8 5 2 15 25 100 100 100 18
100 100 100 100 100 100 98 100 100 99 48 26 5 5 5 5 5 5 5 5 5 5 5 53 56 69 29 45 71 100 99 98 100 100 97 14 4 18 5 99 100 100 99
100 100 100 100 100 100 100 100 100 33 5 37 24 5 5 5 5 5 5 5 5 16 47 80 77 52 42 90 72 98 100 100 100 100 100 100 89 80 4 10 100 100 100
100 100 100 84 95 100 100 100 52 34 42 5 9 50 19 28 25 60 5 5 5 9 23 31 40 29 36 48 97 100 100 100 100 100 100 100 100 100 80 28 100 100 100
100 100 100 100 100 100 27 45 31 65 71 100 100 96 99 100 92 20 5 5 5 6 5 10 6 9 29 74 76 96 99 100 100 100 100 100 100 100 100 96 96 100 100
100 100 100 100 100 99 91 100 100 100 100 100 74 84 95 96 92 10 5 5 7 5 5 5 5 26 35 61 78 100 100 100 100 100 100 100 100 100 100 100 100 100 100
100 100 100 100 100 100 100 100 100 100 99 78 94 99 94 66 11 5 5 5 5 5 0 5 5 13 48 53 84 98 86 100 100 100 100 100 100 100 100 100 100 100 100
100 100 100 100 100 100 100 100 100 99 92 88 99 100 66 9 5 25 6 3 5 11 17 5 12 93 25 33 77 70 84 95 100 100 100 100 100 100 100 100 100 100 100
100 100 100 100 100 100 100 100 100 98 86 100 96 100 31 21 14 7 5 7 73 8 7 26 97 5 13 63 89 82 81 80 100 100 100 100 100 100 100 100 100 100 100
100 100 100 100 100 100 100 100 99 100 100 100 100 100 67 28 38 9 71 70 5 10 88 98 8 5 5 21 66 67 78 95 90 100 100 100 100 100 100 100 100 100 100
100 100 100 100 100 100 100 100 100 100 100 100 100 100 100 99 50 67 100 5 20 99 83 5 5 5 5 16 5 8 68 78 89 94 100 100 100 100 100 100 100 100 100
100 100 100 100 100 100 100 100 100 100 100 100 100 100 100 77 94 100 76 98 96 8 5 5 5 5 5 5 53 62 73 98 88 95 94 100 100 100 100 100 100 100 100
100 100 100 100 100 100 100 100 100 100 100 100 100 100 100 100 100 100 100 67 32 70 5 5 9 5 20 5 5 47 60 96 97 98 97 100 100 100 100 100 100 100 100
100 100 100 100 100 100 100 100 100 100 100 100 100 100 100 100 100 100 100 5 6 33 5 5 56 65 75 21 5 70 100 100 100 100 100 100 99 100 100 100 100 100 100
100 100 100 100 100 100 100 100 100 100 100 100 100 100 100 100 100 72 5 5 6 5 5 6 11 100 99 89 74 100 100 100 100 100 100 100 100 100 100 98 100 100 100
100 100 100 100 100 100 100 100 100 100 100 100 100 100 100 98 12 5 5 38 5 5 5 5 97 100 100 100 100 100 100 100 100 100 100 100 100 100 100 100 100 100 100
100 100 100 100 100 100 100 100 100 100 100 100 100 100 68 6 5 5 12 13 62 5 5 71 100 100 100 100 100 100 100 100 100 100 100 100 100 100 100 100 100 100 100
100 100 100 100 100 100 100 100 100 100 100 97 71 27 5 5 5 5 23 82 62 43 58 100 99 100 100 100 100 100 100 100 100 100 100 100 100 100 100 100 100 100 100
100 100 100 100 100 100 100 100 100 88 26 10 11 6 5 5 5 5 65 89 90 100 100 100 100 100 100 100 100 100 100 100 100 100 100 100 100 100 100 100 100 100 100
100 100 100 100 100 99 97 79 48 92 6 5 5 5 5 2 5 5 70 82 90 91 100 100 100 100 100 100 100 97 100 100 100 100 100 100 100 100 100 100 100 100 100
100 100 100 100 100 63 63 52 41 76 36 5 5 5 5 5 5 5 34 95 85 72 87 98 100 100 98 100 100 100 95 97 100 100 100 100 100 100 100 100 100 100 100
100 100 100 100 100 73 66 100 100 97 6 6 6 55 5 25 15 44 77 68 85 98 29 12 48 82 91 99 100 100 100 100 100 100 100 100 100 100 100 100 100 100 100
100 100 100 100 100 100 100 100 100 80 48 5 5 69 84 81 75 91 95 99 86 95 6 12 5 77 100 100 100 100 100 100 100 100 99 91 65 90 93 89 100 100 100
100 100 100 100 100 100 100 100 53 80 5 5 5 73 84 84 85 89 90 94 100 97 99 5 5 73 100 99 98 92 98 66 99 100 100 93 69 58 14 47 95 47 9
100 100 100 100 100 100 100 100 78 5 5 5 5 5 27 84 89 86 99 99 89 87 90 42 5 5 18 47 11 15 54 68 78 81 99 100 100 99 50 11 5 5 42
100 100 100 100 100 100 100 32 5 5 5 5 5 7 66 89 95 90 100 100 96 100 95 27 5 5 19 55 80 84 83 48 70 93 100 100 100 99 77 56 7 5 5

GFSMW_prec_cloud_162.txt.gz
Cloud_Cover
65 100 100 96 8 33 100 100 100 100 100 100 87 81 100 5 5 5 16 5 5 5 5 5 5 5 8 14 45 5 3 2 10 9 5 1 5 6 14 0 3 93 100
100 100 100 100 100 100 100 100 100 100 100 100 100 100 92 5 11 37 5 5 8 5 5 5 5 5 38 86 3 6 7 14 78 99 46 6 3 49 0 11 49 26 100
100 100 100 100 96 92 70 100 100 100 100 100 91 26 6 28 64 5 5 90 18 9 12 37 27 17 4 5 5 16 81 35 32 100 100 100 48 68 7 15 98 47 100
100 95 100 100 100 100 100 100 100 100 100 50 26 39 5 49 11 59 14 64 16 52 62 22 59 5 5 5 10 21 70 79 98 93 100 100 100 100 87 14 20 73 100
100 100 100 88 11 53 66 97 99 38 5 8 21 43 51 20 71 49 71 55 10 11 5 5 5 5 5 5 35 44 50 97 100 100 100 100 100 100 100 100 59 26 100
100 100 100 100 100 86 40 9 8 34 20 18 82 94 81 91 97 97 88 5 31 5 5 5 5 5 5 5 5 26 74 100 100 100 100 100 100 100 100 100 100 100 100
100 100 100 100 100 100 100 100 99 54 42 94 100 100 100 100 100 57 18 5 5 10 5 5 5 5 5 88 5 3 10 56 100 100 100 100 100 100 100 100 100 100 100
100 100 100 100 100 100 100 100 100 100 100 100 100 100 100 57 62 78 44 6 6 5 5 10 12 36 5 5 5 5 3 19 100 100 100 100 100 100 100 100 100 100 100
100 100 100 100 100 100 100 100 100 100 100 100 100 100 87 99 100 100 65 57 24 86 67 100 38 87 6 5 5 5 5 3 89 100 100 100 100 100 100 100 100 100 100
100 100 100 100 100 100 100 100 100 100 100 100 100 96 100 100 100 100 84 100 99 70 100 100 86 100 59 5 5 5 5 5 29 94 100 100 100 100 100 100 100 100 100
100 100 100 100 100 100 100 100 100 100 100 100 100 100 100 100 100 100 100 100 100 100 100 100 98 38 5 5 5 5 5 5 5 51 100 100 100 100 100 100 100 100 100
100 100 100 100 100 100 100 100 100 100 100 100 100 100 100 100 100 100 100 100 100 100 100 93 54 5 5 5 5 50 5 5 5 5 90 98 100 100 100 100 100 100 100
100 100 100 100 100 100 100 100 100 100 100 100 100 100 100 100 100 100 97 100 100 96 95 48 5 5 5 15 79 100 5 5 38 100 100 100 98 100 100 100 100 100 100
98 100 100 100 100 100 100 100 100 100 100 100 100 100 100 100 100 98 100 100 100 100 7 5 5 5 5 84 100 100 34 20 97 94 88 99 100 100 100 100 100 100 100
100 100 100 100 100 100 100 100 100 100 100 100 100 100 100 100 100 100 100 100 100 28 5 4 5 5 38 99 100 100 73 98 100 89 84 100 100 100 100 100 100 100 100
100 100 100 100 100 100 100 100 100 100 100 100 100 100 100 100 100 100 100 100 9 6 9 5 26 78 94 100 100 100 89 100 100 95 100 100 100 100 100 100 100 100 100
100 100 100 100 100 100 100 100 100 100 100 100 100 100 100 100 100 100 69 83 76 55 66 80 85 98 97 100 99 100 92 100 98 100 100 100 100 100 100 100 100 100 100
100 100 100 100 100 100 100 100 100 100 100 100 100 100 100 100 56 66 65 76 70 61 79 94 96 97 100 100 87 93 100 100 99 97 100 100 100 100 100 100 100 100 100
100 100 100 100 100 100 100 100 100 100 100 100 100 100 77 47 34 41 61 83 90 98 98 93 96 100 100 100 81 96 100 100 100 100 100 91 100 100 100 100 100 100 100
100 100 100 100 100 100 100 100 100 100 100 100 100 90 8 5 5 5 59 90 98 94 88 100 100 95 99 100 100 100 100 100 94 100 99 90 90 97 100 100 100 100 100
100 100 100 100 100 100 100 100 100 100 100 100 43 5 5 0 2 5 5 36 74 91 100 100 100 100 99 82 64 99 100 100 99 100 100 100 92 72 68 71 81 99 100
100 100 100 100 100 100 100 100 100 100 100 100 33 33 5 5 5 21 38 30 53 84 81 75 74 81 100 91 97 60 22 28 79 100 100 100 100 82 60 60 58 76 86
100 100 100 100 100 100 100 100 100 100 100 100 92 70 5 5 5 84 99 95 95 93 71 5 14 93 100 99 100 99 50 15 85 82 59 45 58 75 60 18 50 72 77
100 100 100 100 100 100 100 100 100 100 100 100 78 30 40 57 57 97 92 96 97 100 96 89 80 98 100 100 100 100 90 15 29 26 5 5 22 5 5 43 5 5 5
100 100 100 100 100 100 100 100 100 100 100 100 90 5 34 82 100 91 100 100 100 100 100 99 100 89 98 98 100 99 100 100 60 24 21 5 5 5 5 5 5 5 5
100 100 100 100 100 100 100 100 100 100 100 56 18 5 5 70 95 94 100 100 100 84 80 90 90 88 89 11 5 5 5 5 5 5 5 5 5 5 5 5 5 5 4